Date String (YYYY-MM-DD hh:mm:ss) UTC,Instrument flags,absolute air pressure of the measurement (hPa),sample flow rate (lpm),inlet stack bypass flow (lpm),air temperature of the measurement (°C),ambient temperature measured by the external sensor (°C),aerosol sample conditioner tube jacket temperature (°C),OPC LED temperature (°C),internal box temperature (°C),relative humidity of the measurement (%),span deviation,mass concentration of particles derived from Lorenz-Mie calculation of OPC scattering (μg/m³),mass concentration of particles derived from Lorenz-Mie calculation of OPC scattering (μg/m³),mass concentration of particles derived from Lorenz-Mie calculation of OPC scattering (μg/m³)
DateTimeUTC,F1_M11,P_M11,Q1_M11,Q2_M11,T1_M11,T2_M11,T3_M11,T4_M11,T5_M11,U1_M11,ZSPAN_M11,X0_M11,X2_M11,X1_M11
2024-05-28 05:00:00,SystemResetWarning,0834.7,5.00,000.00,031.1,030.3,000.0,039.3,032.7,014.0,0000.0,0013.64,0004.29,0003.30
2024-05-28 05:01:00,SystemResetWarning,0834.7,5.00,000.00,031.1,030.3,000.0,039.3,032.7,014.0,0000.0,0013.28,0004.29,0003.30
2024-05-28 05:02:00,SystemResetWarning,0834.7,5.00,000.00,031.1,030.3,000.0,039.3,032.7,014.1,0000.0,0013.00,0004.26,0003.31
2024-05-28 05:03:00,SystemResetWarning,0834.8,5.01,000.00,031.1,030.3,000.0,039.3,032.7,014.1,0000.0,0012.30,0004.18,0003.31
2024-05-28 05:04:00,SystemResetWarning,0834.7,5.00,000.00,031.1,030.4,000.0,039.3,032.7,014.1,0000.0,0012.01,0004.16,0003.32
2024-05-28 05:05:00,SystemResetWarning,0834.7,5.00,000.00,031.1,030.4,000.0,039.3,032.7,014.2,0000.0,0012.35,0004.13,0003.32
2024-05-28 05:06:00,SystemResetWarning,0834.8,5.00,000.00,031.1,030.4,000.0,039.4,032.7,014.2,0000.0,0011.34,0004.12,0003.31
2024-05-28 05:07:00,SystemResetWarning,0834.7,5.00,000.00,031.1,030.4,000.0,039.4,032.7,014.1,0000.0,0010.93,0004.11,0003.30
2024-05-28 05:08:00,SystemResetWarning,0834.7,5.00,000.00,031.1,030.4,000.0,039.4,032.7,014.1,0000.0,0011.50,0004.11,0003.29
2024-05-28 05:09:00,SystemResetWarning,0834.9,4.99,000.00,031.1,030.4,000.0,039.4,032.8,014.2,0000.0,0011.88,0004.10,0003.29
2024-05-28 05:10:00,SystemResetWarning,0834.9,5.00,000.00,031.1,030.4,000.0,039.4,032.8,014.2,0000.0,0013.06,0004.14,0003.30
2024-05-28 05:11:00,SystemResetWarning,0835.0,5.01,000.00,031.1,030.4,000.0,039.4,032.8,014.2,0000.0,0014.07,0004.20,0003.32
2024-05-28 05:12:00,SystemResetWarning,0834.8,5.00,000.00,031.1,030.4,000.0,039.4,032.8,014.0,0000.0,0013.84,0004.20,0003.31
2024-05-28 05:13:00,SystemResetWarning,0835.2,4.99,000.00,031.1,030.4,000.0,039.4,032.8,014.0,0000.0,0013.29,0004.21,0003.31
2024-05-28 05:14:00,SystemResetWarning,0835.3,5.00,000.00,031.1,030.4,000.0,039.4,032.8,014.0,0000.0,0013.47,0004.26,0003.31
2024-05-28 05:15:00,SystemResetWarning,0835.3,5.02,000.00,031.1,030.4,000.0,039.4,032.8,013.9,0000.0,0014.16,0004.28,0003.30
2024-05-28 05:16:00,SystemResetWarning,0835.3,4.99,000.00,031.2,030.4,000.0,039.4,032.8,013.8,0000.0,0014.43,0004.30,0003.29
2024-05-28 05:17:00,SystemResetWarning,0835.4,5.00,000.00,031.2,030.4,000.0,039.4,032.8,013.8,0000.0,0014.66,0004.31,0003.30
2024-05-28 05:18:00,SystemResetWarning,0835.3,5.01,000.00,031.2,030.4,000.0,039.4,032.8,013.8,0000.0,0014.78,0004.36,0003.29
2024-05-28 05:19:00,SystemResetWarning,0835.3,5.00,000.00,031.2,030.4,000.0,039.4,032.8,013.9,0000.0,0014.61,0004.37,0003.28
2024-05-28 05:20:00,SystemResetWarning,0834.9,5.01,000.00,031.2,030.4,000.0,039.5,032.8,013.8,0000.0,0014.69,0004.41,0003.27
2024-05-28 05:21:00,SystemResetWarning,0834.9,4.99,000.00,031.2,030.4,000.0,039.5,032.8,013.8,0000.0,0014.68,0004.42,0003.26
2024-05-28 05:22:00,SystemResetWarning,0834.9,5.00,000.00,031.2,030.4,000.0,039.5,032.8,013.7,0000.0,0014.57,0004.46,0003.25
2024-05-28 05:23:00,SystemResetWarning,0834.9,5.00,000.00,031.2,030.4,000.0,039.5,032.8,013.7,0000.0,0016.57,0004.51,0003.25
2024-05-28 05:24:00,SystemResetWarning,0835.0,5.00,000.00,031.2,030.4,000.0,039.5,032.9,013.7,0000.0,0017.09,0004.58,0003.25
2024-05-28 05:25:00,SystemResetWarning,0835.0,4.99,000.00,031.2,030.4,000.0,039.5,032.9,013.6,0000.0,0017.48,0004.55,0003.24
2024-05-28 05:26:00,SystemResetWarning,0835.0,5.01,000.00,031.2,030.4,000.0,039.5,032.9,013.6,0000.0,0017.39,0004.56,0003.24
2024-05-28 05:27:00,SystemResetWarning,0835.0,5.01,000.00,031.2,030.4,000.0,039.5,032.9,013.5,0000.0,0017.07,0004.56,0003.23
2024-05-28 05:28:00,SystemResetWarning,0835.0,5.00,000.00,031.2,030.4,000.0,039.5,032.8,013.5,0000.0,0018.42,0004.52,0003.20
2024-05-28 05:29:00,SystemResetWarning,0835.0,4.98,000.00,031.2,030.4,000.0,039.5,032.9,013.5,0000.0,0019.31,0004.44,0003.19
2024-05-28 05:30:00,SystemResetWarning,0835.0,5.00,000.00,031.2,030.4,000.0,039.5,032.9,013.5,0000.0,0019.23,0004.40,0003.18
2024-05-28 05:31:00,SystemResetWarning,0835.0,5.01,000.00,031.2,030.4,000.0,039.5,032.9,013.5,0000.0,0019.16,0004.38,0003.18
2024-05-28 05:32:00,SystemResetWarning,0835.0,5.01,000.00,031.2,030.4,000.0,039.5,032.9,013.5,0000.0,0018.26,0004.35,0003.17
2024-05-28 05:33:00,SystemResetWarning,0835.0,5.01,000.00,031.2,030.4,000.0,039.5,032.8,013.4,0000.0,0016.76,0004.27,0003.16
2024-05-28 05:34:00,SystemResetWarning,0835.0,5.00,000.00,031.2,030.4,000.0,039.5,032.9,013.4,0000.0,0014.73,0004.18,0003.15
2024-05-28 05:35:00,SystemResetWarning,0835.0,4.99,000.00,031.2,030.4,000.0,039.5,032.9,013.5,0000.0,0014.23,0004.11,0003.14
2024-05-28 05:36:00,SystemResetWarning,0835.0,4.99,000.00,031.2,030.4,000.0,039.5,032.9,013.4,0000.0,0013.73,0004.12,0003.15
2024-05-28 05:37:00,SystemResetWarning,0835.0,5.00,000.00,031.2,030.4,000.0,039.5,032.9,013.4,0000.0,0013.84,0004.09,0003.15
2024-05-28 05:38:00,SystemResetWarning,0835.0,5.01,000.00,031.2,030.4,000.0,039.5,032.9,013.4,0000.0,0013.53,0004.07,0003.15
2024-05-28 05:39:00,SystemResetWarning,0835.1,5.01,000.00,031.2,030.4,000.0,039.5,032.8,013.4,0000.0,0013.05,0004.09,0003.16
2024-05-28 05:40:00,SystemResetWarning,0835.1,4.99,000.00,031.2,030.4,000.0,039.5,032.8,013.5,0000.0,0012.46,0004.08,0003.16
2024-05-28 05:41:00,SystemResetWarning,0835.1,4.99,000.00,031.2,030.4,000.0,039.5,032.9,013.5,0000.0,0012.62,0004.08,0003.17
2024-05-28 05:42:00,SystemResetWarning,0835.2,5.00,000.00,031.2,030.4,000.0,039.5,032.8,013.5,0000.0,0012.99,0004.08,0003.17
2024-05-28 05:43:00,SystemResetWarning,0835.1,5.00,000.00,031.2,030.4,000.0,039.5,032.8,013.6,0000.0,0013.09,0004.05,0003.15
2024-05-28 05:44:00,SystemResetWarning,0835.1,5.00,000.00,031.2,030.4,000.0,039.6,032.9,013.6,0000.0,0013.46,0004.01,0003.14
2024-05-28 05:45:00,SystemResetWarning,0835.1,5.00,000.00,031.2,030.4,000.0,039.6,032.9,013.6,0000.0,0013.98,0003.97,0003.14
2024-05-28 05:46:00,SystemResetWarning,0835.1,5.00,000.00,031.2,030.4,000.0,039.5,032.9,013.6,0000.0,0014.75,0003.94,0003.13
2024-05-28 05:47:00,SystemResetWarning,0835.1,5.01,000.00,031.2,030.4,000.0,039.6,032.9,013.7,0000.0,0014.71,0003.92,0003.11
2024-05-28 05:48:00,SystemResetWarning,0835.2,5.00,000.00,031.2,030.4,000.0,039.6,032.8,013.7,0000.0,0015.04,0003.91,0003.10
2024-05-28 05:49:00,SystemResetWarning,0835.2,5.00,000.00,031.2,030.4,000.0,039.6,032.9,013.7,0000.0,0015.69,0003.88,0003.07
2024-05-28 05:50:00,SystemResetWarning,0835.1,4.99,000.00,031.2,030.4,000.0,039.6,032.9,013.7,0000.0,0015.01,0003.84,0003.04
2024-05-28 05:51:00,SystemResetWarning,0835.1,5.00,000.00,031.2,030.4,000.0,039.6,032.9,013.7,0000.0,0015.74,0003.88,0003.00
2024-05-28 05:52:00,SystemResetWarning,0835.1,5.00,000.00,031.2,030.4,000.0,039.6,032.8,013.7,0000.0,0015.08,0003.82,0002.96
2024-05-28 05:53:00,SystemResetWarning,0835.1,5.01,000.00,031.2,030.4,000.0,039.6,032.8,013.8,0000.0,0014.42,0003.73,0002.93
2024-05-28 05:54:00,SystemResetWarning,0835.1,5.00,000.00,031.2,030.4,000.0,039.6,032.8,013.8,0000.0,0015.69,0003.71,0002.91
2024-05-28 05:55:00,SystemResetWarning,0835.2,5.00,000.00,031.2,030.4,000.0,039.6,032.8,013.7,0000.0,0016.53,0003.73,0002.89
2024-05-28 05:56:00,SystemResetWarning,0835.2,5.00,000.00,031.2,030.4,000.0,039.6,032.8,013.8,0000.0,0016.25,0003.74,0002.88
2024-05-28 05:57:00,SystemResetWarning,0835.3,5.01,000.00,031.2,030.4,000.0,039.6,032.8,013.8,0000.0,0015.73,0003.72,0002.87
2024-05-28 05:58:00,SystemResetWarning,0835.3,5.00,000.00,031.2,030.4,000.0,039.6,032.8,013.9,0000.0,0016.12,0003.69,0002.84
2024-05-28 05:59:00,SystemResetWarning,0835.3,5.00,000.00,031.2,030.4,000.0,039.6,032.8,013.9,0000.0,0015.38,0003.66,0002.83
